CW5194 Weather Reports


time (UTC)temp
C
wind
direction
speed
KPH
gust
KPH
rain 1hr
cm
rain 24hr
cm
rain mn
cm
humidity
%
barometer
mb
20260906080042 18 40 1.6 6.4 0.00 0.20 0.00 80 1016.3
20260906075519 18 36 1.6 6.4 0.00 0.20 0.00 80 1016.3
20260906075024 18 49 1.6 6.4 0.00 0.20 0.00 80 1016.4
20260906074541 18 42 0.0 6.4 0.00 0.20 0.00 81 1016.3
20260906074023 18 11 1.6 6.4 0.00 0.20 0.00 81 1016.2
20260906073523 18 309 1.6 6.4 0.00 0.20 0.00 80 1016.2
20260906073050 18 42 1.6 4.8 0.00 0.20 0.00 80 1016.2
20260906072526 18 352 0.0 4.8 0.00 0.20 0.00 80 1016.3
20260906072026 18 47 0.0 4.8 0.00 0.20 0.00 80 1016.4
20260906071544 18 46 0.0 4.8 0.00 0.20 0.00 81 1016.4
20260906071020 18 0 0.0 4.8 0.00 0.20 0.00 81 1016.2
20260906070522 18 21 0.0 6.4 0.00 0.20 0.00 81 1016.2
20260906070040 18 36 0.0 6.4 0.00 0.20 0.00 80 1016.2
20260906065524 18 29 1.6 6.4 0.00 0.20 0.00 80 1016.3
20260906065023 18 0 1.6 6.4 0.00 0.20 0.00 81 1016.3
20260906064542 18 58 0.0 6.4 0.00 0.20 0.00 81 1016.3
20260906064024 18 68 0.0 6.4 0.00 0.20 0.00 81 1016.2
20260906063523 18 36 0.0 6.4 0.00 0.20 0.00 81 1016.2
20260906063041 18 0 0.0 4.8 0.00 0.20 0.00 82 1016.2
20260906062524 18 35 1.6 6.4 0.00 0.20 0.00 82 1016.2
20260906062024 18 319 0.0 6.4 0.00 0.20 0.00 82 1016.2
20260906061550 19 56 1.6 9.7 0.00 0.20 0.00 82 1016.2
20260906061023 19 42 1.6 9.7 0.00 0.20 0.00 82 1016.4
20260906060525 19 0 0.0 6.4 0.00 0.20 0.00 82 1016.4
20260906060048 19 9 0.0 3.2 0.00 0.20 0.00 81 1016.5
20260906055524 19 352 0.0 4.8 0.00 0.20 0.00 82 1016.4
20260906055025 20 350 0.0 6.4 0.00 0.20 0.00 82 1016.4
20260906054544 20 350 1.6 6.4 0.00 0.20 0.00 81 1016.3
20260906054022 20 0 3.2 6.4 0.00 0.20 0.00 82 1016.2
20260906053525 20 12 1.6 6.4 0.00 0.20 0.00 82 1016.2
20260906053041 20 352 1.6 9.7 0.00 0.20 0.00 83 1016.1
20260906052524 20 331 1.6 9.7 0.00 0.20 0.00 84 1016.0
20260906052024 20 15 1.6 9.7 0.00 0.20 0.00 84 1016.0
20260906051541 20 0 1.6 6.4 0.00 0.20 0.00 85 1015.8
20260906051024 20 340 1.6 6.4 0.00 0.20 0.00 85 1015.8
20260906050526 20 0 1.6 6.4 0.00 0.20 0.00 85 1015.7
20260906050046 21 35 0.0 3.2 0.00 0.20 0.00 86 1015.7
20260906045523 21 0 0.0 6.4 0.00 0.20 0.00 86 1015.6
20260906045022 21 0 0.0 6.4 0.00 0.20 0.00 86 1015.6
20260906044544 21 341 1.6 6.4 0.00 0.20 0.00 86 1015.7
20260906044022 21 39 1.6 8.0 0.00 0.20 0.00 86 1015.7
20260906043525 21 0 1.6 8.0 0.00 0.20 0.00 87 1015.6
20260906043041 21 17 1.6 4.8 0.00 0.20 0.00 87 1015.6
20260906042523 21 0 0.0 4.8 0.00 0.20 0.00 86 1015.5
20260906042025 21 97 0.0 4.8 0.00 0.20 0.00 86 1015.6
20260906041548 21 0 1.6 6.4 0.00 0.20 0.00 86 1015.7
20260906041025 21 31 1.6 8.0 0.00 0.20 0.00 86 1015.7
20260906040524 21 24 1.6 8.0 0.00 0.20 0.00 87 1015.6
20260906040043 21 341 3.2 8.0 0.00 0.20 0.00 87 1015.6
20260906035521 22 0 1.6 6.4 0.00 0.20 0.20 87 1015.6
20260906035024 22 360 1.6 8.0 0.00 0.20 0.20 87 1015.4
20260906034542 22 49 1.6 8.0 0.00 0.20 0.20 87 1015.4
20260906034024 22 244 0.0 6.4 0.00 0.20 0.20 88 1015.3
20260906033523 22 22 1.6 6.4 0.00 0.20 0.20 88 1015.2
20260906033051 22 0 1.6 6.4 0.00 0.20 0.20 88 1015.3
20260906032525 22 16 1.6 6.4 0.00 0.20 0.20 88 1015.2
20260906032026 22 0 1.6 8.0 0.00 0.20 0.20 88 1015.2
20260906031544 22 28 0.0 8.0 0.00 0.20 0.20 88 1015.3
20260906031025 22 0 1.6 6.4 0.00 0.20 0.20 88 1015.3
20260906030522 22 347 1.6 6.4 0.00 0.20 0.20 88 1015.4
20260906030045 22 18 0.0 6.4 0.00 0.20 0.20 88 1015.5
20260906025524 22 314 1.6 6.4 0.00 0.20 0.20 88 1015.4
20260906025024 22 0 1.6 6.4 0.00 0.20 0.20 88 1015.4
20260906024541 22 38 1.6 6.4 0.00 0.20 0.20 88 1015.5
20260906024024 22 352 1.6 6.4 0.00 0.20 0.20 88 1015.5
20260906023525 22 0 1.6 6.4 0.00 0.20 0.20 88 1015.4
20260906023048 22 332 1.6 11.3 0.00 0.20 0.20 88 1015.5
20260906022521 22 60 1.6 11.3 0.00 0.20 0.20 87 1015.4
20260906022022 22 34 3.2 8.0 0.00 0.20 0.20 87 1015.4
20260906021545 22 24 1.6 6.4 0.00 0.20 0.20 87 1015.2
20260906021018 22 28 1.6 6.4 0.00 0.20 0.20 87 1015.2
20260906020524 22 9 0.0 6.4 0.00 0.20 0.20 87 1015.1
20260906020041 22 360 1.6 6.4 0.00 0.20 0.20 87 1015.1
20260906015523 23 23 1.6 6.4 0.00 0.20 0.20 87 1015.0
20260906015025 23 348 1.6 6.4 0.00 0.20 0.20 87 1014.9
20260906014552 23 0 0.0 4.8 0.00 0.20 0.20 87 1014.9
20260906014024 23 5 0.0 4.8 0.00 0.20 0.20 87 1014.9
20260906013522 23 38 1.6 6.4 0.00 0.20 0.20 86 1014.9
20260906013046 23 38 1.6 6.4 0.00 0.20 0.20 86 1014.7
20260906012521 23 60 1.6 6.4 0.00 0.20 0.20 86 1014.5
20260906012025 23 37 1.6 6.4 0.00 0.20 0.20 87 1014.5
20260906011540 23 0 0.0 6.4 0.00 0.20 0.20 87 1014.5
20260906011024 23 177 1.6 8.0 0.00 0.20 0.20 87 1014.5
20260906010525 23 0 1.6 8.0 0.00 0.20 0.20 88 1014.5
20260906010051 23 0 1.6 11.3 0.00 0.20 0.20 88 1014.5
20260906005524 23 20 0.0 11.3 0.00 0.20 0.20 88 1014.3
20260906005026 23 5 1.6 9.7 0.00 0.20 0.20 88 1014.2
20260906004542 23 0 1.6 8.0 0.00 0.20 0.20 89 1014.2
20260906004027 23 42 1.6 8.0 0.00 0.20 0.20 89 1014.2
20260906003521 23 309 1.6 8.0 0.00 0.20 0.20 89 1014.0
20260906003051 23 0 1.6 8.0 0.00 0.20 0.20 89 1013.7
20260906002518 22 0 0.0 4.8 0.00 0.20 0.20 89 1013.7
20260906002025 22 0 0.0 0.0 0.00 0.20 0.20 89 1013.8
20260906001549 22 0 0.0 0.0 0.03 0.20 0.20 88 1013.8
20260906001025 22 0 0.0 0.0 0.03 0.20 0.20 89 1013.7
20260906000525 22 0 0.0 0.0 0.03 0.20 0.20 88 1013.8
20260906000050 22 0 0.0 3.2 0.03 0.20 0.20 88 1013.9
20260905235523 22 0 0.0 3.2 0.03 0.20 0.20 88 1013.8
20260905235023 22 108 0.0 3.2 0.03 0.20 0.20 87 1013.8
20260905234545 23 0 0.0 3.2 0.03 0.20 0.20 87 1013.7
20260905234021 23 108 1.6 3.2 0.03 0.20 0.20 86 1013.9
20260905233522 23 0 0.0 3.2 0.03 0.20 0.20 85 1013.8
20260905233041 23 107 0.0 3.2 0.03 0.20 0.20 85 1013.7
20260905232525 23 0 0.0 6.4 0.03 0.20 0.20 82 1013.7
20260905232023 23 217 0.0 6.4 0.03 0.20 0.20 84 1013.8
20260905231548 23 174 3.2 6.4 0.00 0.18 0.18 84 1013.8
20260905231023 23 0 0.0 4.8 0.00 0.18 0.18 84 1013.8
20260905230524 23 89 1.6 8.0 0.00 0.18 0.18 83 1013.7
20260905230042 23 308 0.0 19.3 0.00 0.18 0.18 84 1014.2
20260905225523 23 306 4.8 19.3 0.05 0.18 0.18 82 1014.2
20260905225020 23 258 1.6 8.0 0.10 0.18 0.18 84 1014.5
20260905224541 23 277 1.6 4.8 0.10 0.18 0.18 85 1014.7
20260905224024 23 271 1.6 3.2 0.13 0.18 0.18 85 1014.0
20260905223525 23 51 0.0 6.4 0.13 0.18 0.18 84 1014.0
20260905223048 23 50 1.6 6.4 0.13 0.18 0.18 84 1014.0
20260905222525 23 352 1.6 6.4 0.13 0.18 0.18 83 1013.7
20260905222023 23 338 1.6 6.4 0.13 0.18 0.18 83 1013.6
20260905221544 24 345 0.0 4.8 0.13 0.18 0.18 83 1013.2
20260905221022 24 36 0.0 6.4 0.13 0.18 0.18 83 1013.2
20260905220523 25 304 1.6 6.4 0.13 0.18 0.18 82 1013.2
20260905220041 25 0 1.6 19.3 0.13 0.18 0.18 78 1013.2
20260905215524 27 301 6.4 19.3 0.08 0.15 0.13 73 1013.3
20260905215026 28 360 9.7 19.3 0.03 0.10 0.08 70 1013.3
20260905214548 29 320 3.2 9.7 0.00 0.08 0.05 69 1013.2
20260905214027 30 291 3.2 9.7 0.00 0.08 0.05 66 1012.9
20260905213524 30 302 0.0 4.8 0.00 0.08 0.05 65 1012.8
20260905213044 30 329 1.6 9.7 0.00 0.08 0.05 63 1012.9
20260905212522 31 300 0.0 9.7 0.00 0.08 0.05 62 1012.8
20260905212022 31 224 3.2 9.7 0.00 0.08 0.05 61 1012.8
20260905211542 31 271 1.6 12.9 0.00 0.08 0.05 61 1012.7
20260905211020 31 313 3.2 12.9 0.00 0.08 0.05 61 1012.7
20260905210521 31 333 3.2 12.9 0.00 0.08 0.05 62 1012.9
20260905210048 31 333 6.4 14.5 0.00 0.08 0.05 60 1013.0
20260905205526 31 198 6.4 14.5 0.00 0.08 0.05 61 1013.1
20260905205024 31 252 3.2 12.9 0.00 0.08 0.05 62 1013.2
20260905204544 31 331 4.8 12.9 0.00 0.08 0.05 62 1013.4
20260905204023 31 332 3.2 12.9 0.00 0.08 0.05 63 1013.3
20260905203521 31 329 3.2 11.3 0.00 0.08 0.05 61 1013.5
20260905203042 31 308 3.2 14.5 0.00 0.08 0.05 61 1013.5
20260905202519 31 298 3.2 14.5 0.00 0.08 0.05 62 1013.5
20260905202018 31 78 4.8 14.5 0.00 0.08 0.05 61 1013.6
20260905201541 31 229 3.2 12.9 0.00 0.08 0.05 61 1013.5
20260905201023 31 123 4.8 12.9 0.00 0.08 0.05 62 1013.7
20260905200527 31 292 3.2 9.7 0.00 0.08 0.05 62 1013.6
20260905200056 31 266 3.2 12.9 0.00 0.08 0.05 63 1013.8
20260905195523 31 234 4.8 12.9 0.00 0.08 0.05 60 1013.8
20260905195024 31 210 3.2 14.5 0.00 0.08 0.05 62 1013.8
20260905194547 31 317 3.2 16.1 0.00 0.08 0.05 63 1013.9
20260905194025 31 261 6.4 16.1 0.00 0.08 0.05 60 1013.9
20260905193531 31 254 4.8 16.1 0.00 0.08 0.05 62 1014.0
20260905193044 30 261 4.8 14.5 0.00 0.08 0.05 63 1014.1
20260905192519 30 213 6.4 12.9 0.00 0.08 0.05 62 1014.2
20260905192018 30 352 4.8 14.5 0.00 0.08 0.05 61 1014.2
20260905191542 30 223 3.2 16.1 0.00 0.08 0.05 61 1014.2
20260905191025 30 223 9.7 16.1 0.00 0.08 0.05 61 1014.3
20260905190524 30 250 3.2 11.3 0.00 0.08 0.05 61 1014.4
20260905190057 30 246 1.6 16.1 0.00 0.08 0.05 62 1014.4
20260905185521 30 223 6.4 16.1 0.00 0.08 0.05 62 1014.5
20260905185021 30 205 6.4 11.3 0.00 0.08 0.05 60 1014.6
20260905184547 30 211 4.8 16.1 0.00 0.08 0.05 60 1014.7
20260905184021 30 317 3.2 17.7 0.00 0.08 0.05 63 1014.8
20260905183525 30 242 8.0 19.3 0.00 0.08 0.05 61 1014.9
20260905183045 30 248 9.7 19.3 0.00 0.08 0.05 61 1014.9
20260905182524 30 270 8.0 17.7 0.00 0.08 0.05 60 1015.0
20260905182026 30 227 4.8 19.3 0.00 0.08 0.05 63 1015.0
20260905181544 30 244 8.0 19.3 0.00 0.08 0.05 62 1015.0
20260905181024 30 214 8.0 19.3 0.00 0.08 0.05 61 1015.1
20260905180524 30 229 6.4 16.1 0.00 0.08 0.05 63 1015.1
20260905180045 29 344 3.2 12.9 0.00 0.08 0.05 62 1015.0
20260905175522 29 231 3.2 12.9 0.00 0.08 0.05 63 1015.1
20260905175024 29 242 4.8 14.5 0.00 0.08 0.05 61 1015.0
20260905174542 29 219 4.8 16.1 0.00 0.08 0.05 66 1015.0
20260905174024 28 201 6.4 19.3 0.00 0.08 0.05 63 1015.0
20260905173524 28 212 9.7 19.3 0.00 0.08 0.05 63 1015.0
20260905173048 28 297 8.0 19.3 0.00 0.08 0.05 63 1015.0
20260905172524 28 298 3.2 16.1 0.00 0.08 0.05 65 1015.0
20260905172024 28 272 4.8 22.5 0.00 0.08 0.05 64 1015.2
20260905171551 28 244 12.9 22.5 0.00 0.08 0.05 66 1015.2
20260905171023 28 210 4.8 16.1 0.00 0.08 0.05 65 1015.3
20260905170520 28 262 4.8 16.1 0.00 0.08 0.05 65 1015.2
20260905170049 28 234 4.8 19.3 0.00 0.08 0.05 67 1015.2
20260905165524 28 243 4.8 19.3 0.00 0.08 0.05 66 1015.1
20260905165024 28 209 3.2 16.1 0.00 0.08 0.05 71 1015.2
20260905164549 28 343 4.8 19.3 0.00 0.08 0.05 69 1015.2
20260905164024 27 218 3.2 19.3 0.00 0.08 0.05 71 1015.2
20260905163523 27 284 9.7 19.3 0.00 0.08 0.05 70 1015.4
20260905163049 26 245 6.4 16.1 0.00 0.08 0.05 72 1015.5
20260905162523 26 239 4.8 14.5 0.00 0.08 0.05 72 1015.6
20260905162022 26 327 6.4 14.5 0.00 0.08 0.05 70 1016.3
20260905161541 26 325 1.6 6.4 0.00 0.08 0.05 71 1016.1
20260905161020 26 259 1.6 16.1 0.00 0.08 0.05 71 1015.9
20260905160518 26 264 3.2 16.1 0.00 0.08 0.05 71 1015.9
20260905160052 27 195 4.8 16.1 0.00 0.08 0.05 69 1015.8
20260905155525 27 227 3.2 16.1 0.00 0.08 0.05 70 1015.8
20260905155023 27 227 6.4 16.1 0.00 0.08 0.05 69 1015.8
20260905154548 27 244 4.8 11.3 0.00 0.08 0.05 69 1015.8
20260905154024 27 257 3.2 9.7 0.00 0.08 0.05 69 1015.8
20260905153525 26 163 3.2 8.0 0.00 0.08 0.05 70 1016.0
20260905153101 26 238 4.8 11.3 0.00 0.08 0.05 69 1016.0
20260905152523 26 196 1.6 11.3 0.00 0.08 0.05 69 1015.9
20260905152025 26 195 4.8 12.9 0.00 0.08 0.05 70 1015.9
20260905151544 26 225 3.2 12.9 0.00 0.08 0.05 70 1015.8
20260905151021 26 154 4.8 14.5 0.00 0.08 0.05 72 1015.6
20260905150524 25 223 4.8 14.5 0.00 0.08 0.05 72 1015.4
20260905150041 25 205 6.4 14.5 0.00 0.08 0.05 72 1015.4
20260905145527 25 263 4.8 12.9 0.00 0.08 0.05 72 1015.6
20260905145025 25 265 6.4 12.9 0.00 0.08 0.05 74 1015.5
20260905144549 25 201 4.8 11.3 0.00 0.08 0.05 74 1015.3
20260905144025 24 245 4.8 11.3 0.00 0.08 0.05 74 1015.3
20260905143525 24 227 3.2 9.7 0.00 0.08 0.05 75 1015.5
20260905143045 23 211 3.2 9.7 0.00 0.08 0.05 77 1015.4
20260905142522 23 205 3.2 11.3 0.00 0.08 0.05 78 1015.6
20260905142024 23 207 4.8 11.3 0.00 0.08 0.05 78 1015.7
20260905141555 22 221 4.8 9.7 0.00 0.08 0.05 79 1015.6
20260905141025 22 174 3.2 11.3 0.00 0.08 0.05 79 1015.7
20260905140524 22 175 4.8 11.3 0.00 0.08 0.05 81 1015.8
20260905140048 22 182 3.2 11.3 0.00 0.08 0.05 80 1015.8
20260905135525 22 170 4.8 11.3 0.00 0.08 0.05 81 1015.9
20260905135023 22 236 3.2 12.9 0.00 0.08 0.05 81 1015.9
20260905134544 21 196 3.2 12.9 0.00 0.08 0.05 82 1015.8
20260905134025 21 189 4.8 12.9 0.00 0.08 0.05 82 1015.8
20260905133524 21 164 6.4 11.3 0.00 0.08 0.05 82 1015.9
20260905133042 21 179 3.2 9.7 0.00 0.08 0.05 84 1015.9
20260905132525 21 150 3.2 9.7 0.00 0.08 0.05 84 1016.3
20260905132024 21 217 4.8 9.7 0.00 0.08 0.05 85 1016.4
20260905131602 20 313 1.6 12.9 0.00 0.08 0.05 84 1016.5
20260905131026 20 111 3.2 12.9 0.00 0.08 0.05 86 1016.4
20260905130524 20 207 0.0 6.4 0.00 0.08 0.05 86 1016.5
20260905130045 20 188 1.6 6.4 0.00 0.08 0.05 86 1016.7
20260905125526 20 110 1.6 6.4 0.00 0.08 0.05 87 1016.5
20260905125025 20 0 0.0 4.8 0.00 0.08 0.05 86 1016.7
20260905124544 20 171 0.0 3.2 0.00 0.08 0.05 86 1016.7
20260905124026 20 169 0.0 3.2 0.00 0.08 0.05 85 1016.6
20260905123524 20 0 0.0 3.2 0.00 0.08 0.05 85 1016.6
20260905123049 20 0 0.0 3.2 0.00 0.08 0.05 85 1016.6
20260905122527 20 343 0.0 4.8 0.00 0.08 0.05 85 1016.7
20260905122025 20 0 0.0 4.8 0.00 0.08 0.05 85 1016.5
20260905121547 20 169 0.0 4.8 0.00 0.08 0.05 84 1016.3
20260905121023 20 0 1.6 6.4 0.00 0.08 0.05 85 1016.3
20260905120523 20 92 0.0 6.4 0.00 0.08 0.05 84 1016.2
20260905120042 20 153 0.0 9.7 0.00 0.08 0.05 83 1016.0
20260905115525 20 185 3.2 9.7 0.00 0.08 0.05 83 1015.9
20260905115023 20 0 0.0 6.4 0.00 0.08 0.05 83 1016.1
20260905114549 20 0 0.0 6.4 0.00 0.08 0.05 83 1016.1
20260905114024 20 270 1.6 6.4 0.00 0.08 0.05 83 1016.1
20260905113524 20 90 1.6 6.4 0.00 0.08 0.05 83 1016.1
20260905113049 20 20 1.6 8.0 0.00 0.08 0.05 83 1016.4
20260905112524 20 172 0.0 14.5 0.00 0.08 0.05 83 1016.3
20260905112023 20 227 3.2 14.5 0.00 0.08 0.05 83 1016.4
20260905111544 20 40 1.6 9.7 0.00 0.08 0.05 83 1016.3
20260905111023 20 105 1.6 12.9 0.00 0.08 0.05 84 1016.1
20260905110521 20 49 3.2 12.9 0.00 0.08 0.05 83 1016.3
20260905110041 20 44 1.6 20.9 0.00 0.08 0.05 84 1016.2
20260905105523 20 46 8.0 20.9 0.00 0.08 0.05 84 1016.2
20260905105019 20 58 3.2 11.3 0.03 0.08 0.05 86 1016.7
20260905104549 20 64 1.6 9.7 0.05 0.08 0.05 86 1017.1
20260905104023 20 0 1.6 8.0 0.05 0.08 0.05 86 1017.1
20260905103526 20 44 1.6 8.0 0.05 0.08 0.05 86 1017.0
20260905103053 20 0 0.0 4.8 0.05 0.08 0.05 86 1017.0
20260905102524 20 32 0.0 6.4 0.05 0.08 0.05 86 1017.1
20260905102023 20 51 1.6 6.4 0.05 0.08 0.05 85 1017.1
20260905101548 20 155 1.6 8.0 0.05 0.08 0.05 85 1017.0
20260905101022 20 302 1.6 9.7 0.05 0.08 0.05 85 1017.0
20260905100521 20 17 3.2 16.1 0.05 0.08 0.05 84 1017.1
20260905100041 20 36 3.2 16.1 0.05 0.08 0.05 84 1017.0
20260905095526 20 105 3.2 16.1 0.05 0.08 0.05 83 1017.0
20260905095026 21 28 3.2 16.1 0.03 0.05 0.03 81 1017.0
20260905094549 21 73 4.8 16.1 0.00 0.03 0.00 80 1017.0
20260905094023 21 11 3.2 20.9 0.00 0.03 0.00 78 1016.9
20260905093524 21 109 6.4 30.6 0.00 0.03 0.00 78 1017.0
20260905093043 21 360 3.2 30.6 0.00 0.03 0.00 78 1016.8
20260905092522 21 310 8.0 20.9 0.00 0.03 0.00 78 1016.9
20260905092022 22 328 6.4 24.1 0.00 0.03 0.00 78 1017.0
20260905091541 22 153 6.4 24.1 0.00 0.03 0.00 79 1017.0
20260905091020 22 328 6.4 20.9 0.00 0.03 0.00 87 1016.7
20260905090522 22 61 1.6 6.4 0.00 0.03 0.00 90 1016.2
20260905085521 22 0 0.0 3.2 0.00 0.03 0.00 89 1015.4
20260905085024 22 0 0.0 1.6 0.00 0.03 0.00 89 1015.3
20260905084548 22 0 0.0 1.6 0.00 0.03 0.00 89 1015.4
20260905084031 22 0 0.0 1.6 0.00 0.03 0.00 89 1015.3
20260905083520 22 198 0.0 1.6 0.00 0.03 0.00 89 1015.2
20260905083049 22 0 0.0 3.2 0.00 0.03 0.00 89 1015.1
20260905082525 22 198 0.0 3.2 0.00 0.03 0.00 89 1015.1
20260905082023 22 236 0.0 1.6 0.00 0.03 0.00 89 1014.8
20260905081547 22 0 0.0 0.0 0.00 0.03 0.00 89 1014.7
20260905081024 22 0 0.0 0.0 0.00 0.03 0.00 89 1014.8
20260905080522 22 0 0.0 0.0 0.00 0.03 0.00 89 1014.9